Location: Huntsville
(41.2590°N, 111.7678°W)
Time: 07:15:19
(UTC+00:00)

Envisat - Pass Details

Date: 03 December 2021
Orbit: 764 x 766 km, 98.2° (Epoch: 18 January)

Event Time Altitude Azimuth Distance (km) Brightness Sun altitude
Rises 00:42:45 0° 203° (SSW) 3,218 7.0 -8.3°
Reaches altitude 10° 00:45:37 10° 220° (SW) 2,297 6.6 -8.8°
Maximum altitude 00:49:20 20° 268° (W) 1,705 5.9 -9.5°
Drops below altitude 10° 00:53:03 10° 315° (NW) 2,310 5.8 -10.1°
Sets 00:55:58 0° 332° (NNW) 3,241 6.4 -10.7°
